COSMOS 1275 DEB, 13473

Orbit data source: Space-Track

COSMOS 1275 DEB, 13473 is space debris in LEO originally from a launch on Thu, 04 Jun 1981 UTC launched from the Plesetsk Missile And Space Complex (PKMTR). Debris objects in space refer to the collection of defunct objects orbiting the Earth. Examples of debris include non-operational satellites, rocket bodies, and fragments generated from explosions, collisions, or faulty payload assembly.

Loading next visibility...
Identifier
13473, 1981-053FV
Orbit
LEO
Country
Flag of CISCIS
Related business
Manufacturer
Unknown
Mission
Spacecraft
Bus & Motor
Unknown
Mass
Unknown
Launch date (UTC)
1981-06-04 (44 years ago)
Launch vehicle
Unknown
Launch site
Plesetsk Missile And Space Complex (PKMTR)
Object type
Payload
Rocket body
Debris
Shape & HBR
Unknown shape, 0.1 m
Radar Cross Section
Small (<0.1 m²)

Expand to show TLE details & history
Last TLE update: 8 hours ago

TLE from 8 hours ago
0 COSMOS 1275 DEB
1 13473U 81053FV  25286.67200544  .00004696  00000-0  20157-2 0  9998
2 13473  82.8346 174.9590 0045049  64.4084 325.4447 14.24047143212727
Epoch: 2025-10-13T16:07Z
TLE epoch observation values (Epoch: 2025-10-13T16:07:41.270Z)
Latitude
29.35422°
Longitude
-85.40152°
Altitude
788.76 km
Speed
7.476 km/s
True Right ascension
11h 55m 58s
True Declination
29° 12' 29"
Sunlit
Object was in daylight at epoch
Visualization orbit readout
Latitude
Unknown
Longitude
Unknown
Altitude
Unknown
Speed
Unknown
Apparent Right ascension
Unknown
Apparent Declination
Unknown
Sunlit
N/A
Visualization observer readout
Local Sidereal Time
18:37:51
Azimuth
Unknown
Elevation
Unknown
Doppler factor
Unknown
Orbital elements
Apogee altitude
841.16 km
Perigee altitude
776.407 km
Semi-major axis
7,186.921 km
Eccentricity
0.0045
Inclination
82.8346°
RAAN
174.959°
Arg. of periapsis
64.4084°
True anomaly
325.15053°
Mean anomaly
325.4447°
Eccentric anomaly
325.29775°
Mean motion
3.56229 °/min
Orbital period
101.06 mins
BSTAR
0.0020157
Loading maneuver chart data...
Computing Atmospheric mass density...
Loading historical data...
Loading historical data...
Loading historical data...
Loading historical data...
Loading historical data...
Loading historical data...
Loading historical data...

Documentation

Showing up to 5 results
|